�������l�o���
Date,Time,MP-1(��Sv/h),MP-2(��Sv/h),MP-3(��Sv/h),MP-4(��Sv/h),MP-5(��Sv/h),MP-6(��Sv/h),MP-7(��Sv/h),MP-8(��Sv/h),����,����(m/s),���J
2019/11/26,00:00,0.696,1.004,0.672,1.238,0.873,0.403,0.705,0.673,�k�k��,6.4,��
2019/11/26,00:10,0.698,1.005,0.671,1.241,0.873,0.403,0.704,0.671,�k�k��,7.7,��
2019/11/26,00:20,0.699,1.005,0.672,1.240,0.873,0.403,0.703,0.672,�k�k��,7.7,��
2019/11/26,00:30,0.698,1.003,0.670,1.240,0.875,0.403,0.704,0.671,�k,7.1,��
2019/11/26,00:40,0.698,1.002,0.669,1.242,0.875,0.404,0.704,0.671,�k�k��,6.9,��
2019/11/26,00:50,0.697,1.003,0.671,1.242,0.872,0.403,0.704,0.672,�k�k��,6.9,��
2019/11/26,01:00,0.698,1.004,0.671,1.239,0.875,0.403,0.704,0.669,�k,6.1,��
2019/11/26,01:10,0.699,1.004,0.671,1.240,0.874,0.405,0.706,0.672,�k�k��,6.9,��
2019/11/26,01:20,0.699,1.005,0.670,1.242,0.874,0.402,0.703,0.672,�k�k��,6.9,��
2019/11/26,01:30,0.697,1.005,0.672,1.240,0.876,0.404,0.704,0.671,�k,6.9,��
2019/11/26,01:40,0.698,1.005,0.670,1.240,0.874,0.403,0.706,0.671,�k�k��,6.9,��
2019/11/26,01:50,0.698,1.006,0.670,1.241,0.875,0.404,0.705,0.672,�k�k��,6.3,��
2019/11/26,02:00,0.697,1.004,0.672,1.241,0.875,0.404,0.702,0.672,�k�k��,7.5,��
2019/11/26,02:10,0.696,1.006,0.672,1.242,0.875,0.404,0.705,0.671,�k�k��,6.1,��
2019/11/26,02:20,0.697,1.004,0.672,1.242,0.872,0.403,0.705,0.670,�k,7.1,��
2019/11/26,02:30,0.697,1.006,0.671,1.242,0.875,0.403,0.703,0.670,�k�k��,7.7,��
2019/11/26,02:40,0.697,1.004,0.670,1.243,0.874,0.402,0.704,0.672,�k,7.4,��
2019/11/26,02:50,0.697,1.006,0.672,1.240,0.873,0.403,0.705,0.669,�k�k��,6.9,��
2019/11/26,03:00,0.698,1.004,0.671,1.238,0.872,0.402,0.704,0.670,�k�k��,6.3,��
2019/11/26,03:10,0.699,1.003,0.670,1.238,0.875,0.404,0.705,0.671,�k�k��,6.6,��
2019/11/26,03:20,0.698,1.004,0.672,1.241,0.877,0.403,0.704,0.671,�k�k��,5.8,��
2019/11/26,03:30,0.695,1.004,0.669,1.243,0.873,0.404,0.704,0.670,�k�k��,5.8,��
2019/11/26,03:40,0.696,1.004,0.672,1.243,0.875,0.402,0.704,0.670,�k�k��,6.0,��
2019/11/26,03:50,0.696,1.006,0.671,1.241,0.875,0.403,0.704,0.672,�k�k��,5.6,��
2019/11/26,04:00,0.698,1.005,0.672,1.239,0.875,0.404,0.706,0.671,�k�k��,6.0,��
2019/11/26,04:10,0.698,1.004,0.671,1.241,0.875,0.403,0.704,0.672,�k�k��,6.4,��
2019/11/26,04:20,0.698,1.006,0.672,1.244,0.874,0.402,0.705,0.671,�k,5.3,��
2019/11/26,04:30,0.696,1.003,0.671,1.242,0.875,0.402,0.705,0.671,�k�k��,6.1,��
2019/11/26,04:40,0.697,1.004,0.671,1.242,0.875,0.402,0.704,0.670,�k�k��,5.8,��
2019/11/26,04:50,0.697,1.006,0.669,1.241,0.875,0.403,0.705,0.672,�k�k��,5.6,��
2019/11/26,05:00,0.696,1.003,0.670,1.242,0.875,0.402,0.704,0.672,�k�k��,5.5,��
2019/11/26,05:10,0.696,1.004,0.670,1.243,0.877,0.403,0.706,0.672,�k�k��,6.3,��
2019/11/26,05:20,0.697,1.004,0.672,1.243,0.876,0.404,0.706,0.672,�k�k��,6.1,��
2019/11/26,05:30,0.696,1.003,0.672,1.240,0.875,0.402,0.704,0.670,�k�k��,5.6,��
2019/11/26,05:40,0.697,1.003,0.672,1.241,0.875,0.403,0.705,0.671,�k�k��,5.0,��
2019/11/26,05:50,0.699,1.007,0.671,1.244,0.874,0.404,0.702,0.671,�k�k��,5.2,��
2019/11/26,06:00,0.696,1.005,0.670,1.244,0.876,0.400,0.704,0.670,�k�k��,4.7,��
2019/11/26,06:10,0.698,1.004,0.672,1.243,0.874,0.402,0.705,0.671,�k�k��,5.2,��
2019/11/26,06:20,0.698,1.007,0.671,1.243,0.874,0.403,0.705,0.670,�k�k��,4.9,��
2019/11/26,06:30,0.697,1.006,0.670,1.242,0.874,0.402,0.705,0.670,�k�k��,4.9,��
2019/11/26,06:40,0.695,1.005,0.672,1.242,0.875,0.405,0.706,0.672,�k�k��,6.3,��
2019/11/26,06:50,0.698,1.005,0.671,1.240,0.875,0.402,0.706,0.670,�k�k��,6.3,��
2019/11/26,07:00,0.697,1.005,0.671,1.241,0.875,0.402,0.705,0.673,�k�k��,5.6,��
2019/11/26,07:10,0.696,1.004,0.670,1.243,0.874,0.403,0.705,0.671,�k�k��,5.2,��
2019/11/26,07:20,0.697,1.006,0.671,1.242,0.875,0.402,0.706,0.671,�k��,6.3,��
2019/11/26,07:30,0.698,1.006,0.671,1.242,0.874,0.403,0.706,0.670,�k�k��,6.1,��
2019/11/26,07:40,0.697,1.006,0.670,1.241,0.874,0.402,0.706,0.671,�k�k��,5.6,��
2019/11/26,07:50,0.698,1.008,0.673,1.244,0.875,0.402,0.706,0.672,�k�k��,5.6,��
2019/11/26,08:00,0.697,1.007,0.672,1.243,0.875,0.403,0.706,0.671,�k�k��,6.0,��
2019/11/26,08:10,0.695,1.005,0.671,1.244,0.876,0.401,0.706,0.673,�k�k��,5.2,��
2019/11/26,08:20,0.697,1.006,0.671,1.241,0.876,0.402,0.707,0.671,�k�k��,6.6,��
2019/11/26,08:30,0.696,1.007,0.672,1.242,0.877,0.403,0.706,0.670,�k�k��,6.0,��
2019/11/26,08:40,0.696,1.006,0.669,1.244,0.875,0.403,0.705,0.671,�k�k��,5.6,��
2019/11/26,08:50,0.697,1.006,0.671,1.247,0.877,0.402,0.705,0.672,�k�k��,6.3,��
2019/11/26,09:00,0.698,1.004,0.669,1.244,0.877,0.403,0.705,0.670,�k�k��,4.5,��
2019/11/26,09:10,0.698,1.004,0.673,1.245,0.874,0.401,0.705,0.671,�k�k��,6.3,��
2019/11/26,09:20,0.699,1.006,0.670,1.243,0.875,0.403,0.704,0.671,�k�k��,5.0,��
2019/11/26,09:30,0.699,1.005,0.672,1.242,0.874,0.402,0.705,0.671,�k,4.9,��
2019/11/26,09:40,0.698,1.004,0.672,1.242,0.874,0.403,0.705,0.670,�k,5.8,��
2019/11/26,09:50,0.699,1.007,0.671,1.244,0.875,0.402,0.705,0.671,�k,5.6,��
2019/11/26,10:00,0.697,1.005,0.672,1.244,0.877,0.402,0.705,0.670,�k,7.1,��
2019/11/26,10:10,0.695,1.005,0.670,1.245,0.874,0.403,0.706,0.671,�k,6.3,��
2019/11/26,10:20,0.698,1.002,0.671,1.244,0.875,0.402,0.704,0.671,�k,6.7,��
2019/11/26,10:30,0.698,1.003,0.669,1.244,0.877,0.402,0.704,0.671,�k,5.8,��
2019/11/26,10:40,0.697,1.002,0.673,1.245,0.878,0.404,-,0.671,�k,7.8,��
2019/11/26,10:50,0.699,1.004,0.670,1.245,0.878,0.401,-,0.672,�k,7.1,��
2019/11/26,11:00,0.697,1.003,0.671,1.245,0.875,0.401,-,0.671,�k,6.3,��
2019/11/26,11:10,0.699,1.004,0.672,1.246,0.876,0.404,-,0.670,�k,6.7,��
2019/11/26,11:20,0.698,1.005,0.671,1.244,0.876,0.403,-,0.672,�k�k��,6.0,��
2019/11/26,11:30,0.699,1.004,0.674,1.245,0.875,0.403,-,0.672,�k�k��,5.8,��
2019/11/26,11:40,0.700,1.003,0.671,1.246,0.878,0.403,-,0.671,�k�k��,6.1,��
2019/11/26,11:50,0.700,1.006,0.673,1.245,0.875,0.402,-,0.673,�k�k��,5.6,��
2019/11/26,12:00,0.700,1.005,0.673,1.245,0.877,0.403,-,0.672,�k,5.0,��
2019/11/26,12:10,0.699,1.004,0.674,1.245,0.876,0.403,-,0.673,�k�k��,4.9,��
2019/11/26,12:20,0.699,1.006,0.672,1.248,0.876,0.403,-,0.674,�k�k��,4.9,��
2019/11/26,12:30,0.700,1.007,0.672,1.247,0.877,0.404,-,0.673,�k�k��,5.5,��
2019/11/26,12:40,0.700,1.008,0.673,1.248,0.878,0.403,-,0.671,�k�k��,5.2,��
2019/11/26,12:50,0.701,1.004,0.673,1.243,0.880,0.403,-,0.673,�k�k��,4.5,��
2019/11/26,13:00,0.698,1.005,0.674,1.244,0.880,0.403,-,0.673,�k�k��,4.3,��
2019/11/26,13:10,0.700,1.007,0.674,1.247,0.874,0.404,-,0.673,�k,4.1,��
2019/11/26,13:20,0.699,1.008,0.674,1.246,0.879,0.403,-,0.672,�k�k��,4.5,��
2019/11/26,13:30,0.700,1.005,0.672,1.246,0.880,0.403,-,0.671,�k�k��,5.3,��
2019/11/26,13:40,0.700,1.006,0.674,1.245,0.880,0.404,-,0.671,�k�k��,4.2,��
2019/11/26,13:50,0.700,1.006,0.674,1.248,0.879,0.405,-,0.670,�k,5.2,��
2019/11/26,14:00,0.698,1.007,0.673,1.247,0.880,0.403,-,0.671,�k,4.9,��
2019/11/26,14:10,0.697,1.006,0.673,1.247,0.881,0.403,-,0.670,�k�k��,4.3,��
2019/11/26,14:20,0.699,1.005,0.674,1.248,0.880,0.404,-,0.672,�k,4.2,��
2019/11/26,14:30,0.698,1.003,0.674,1.246,0.880,0.404,-,0.670,�k�k��,4.0,��
2019/11/26,14:40,0.698,1.007,0.674,1.247,0.881,0.404,-,0.672,�k,3.8,��
2019/11/26,14:50,0.700,1.008,0.673,1.247,0.880,0.403,-,0.672,�k,3.4,��
2019/11/26,15:00,0.699,1.006,0.674,1.245,0.880,0.404,0.706,0.673,�k,3.4,��
2019/11/26,15:10,0.701,1.009,0.675,1.248,0.881,0.403,0.707,0.674,�k,3.3,��
2019/11/26,15:20,0.701,1.008,0.676,1.247,0.881,0.404,0.708,0.672,�k,2.6,��
2019/11/26,15:30,0.702,1.010,0.675,1.248,0.882,0.402,0.707,0.673,�k,3.8,��
2019/11/26,15:40,0.700,1.009,0.673,1.249,0.881,0.404,0.707,0.672,�k,2.9,��
2019/11/26,15:50,0.701,1.011,0.673,1.245,0.880,0.404,0.707,0.672,�k,3.5,��
2019/11/26,16:00,0.700,1.009,0.673,1.247,0.879,0.404,0.708,0.672,�k,2.8,��
2019/11/26,16:10,0.699,1.010,0.674,1.246,0.880,0.404,0.708,0.674,�k�k��,3.3,��
2019/11/26,16:20,0.699,1.010,0.675,1.247,0.880,0.405,0.708,0.672,�k,2.9,��
2019/11/26,16:30,0.700,1.011,0.675,1.247,0.879,0.404,0.708,0.674,�k�k��,2.8,��
2019/11/26,16:40,0.700,1.011,0.673,1.246,0.881,0.404,0.706,0.671,�k�k��,2.7,��
2019/11/26,16:50,0.700,1.009,0.673,1.248,0.881,0.404,0.708,0.672,�k�k��,3.0,��
2019/11/26,17:00,0.699,1.008,0.673,1.246,0.879,0.404,0.707,0.672,�k�k��,3.2,��
2019/11/26,17:10,0.699,1.011,0.674,1.247,0.881,0.405,0.708,0.671,�k�k��,3.3,��
2019/11/26,17:20,0.699,1.013,0.673,1.245,0.879,0.403,0.709,0.673,�k�k��,3.4,��
2019/11/26,17:30,0.698,1.009,0.672,1.247,0.878,0.402,0.706,0.674,�k�k��,3.3,��
2019/11/26,17:40,0.699,1.010,0.674,1.248,0.880,0.404,0.707,0.673,�k�k��,4.2,��
2019/11/26,17:50,0.699,1.009,0.672,1.247,0.883,0.404,0.707,0.673,�k��,4.4,��
2019/11/26,18:00,0.700,1.011,0.674,1.245,0.881,0.404,0.706,0.673,�k��,3.9,��
2019/11/26,18:10,0.699,1.009,0.673,1.246,0.879,0.403,0.706,0.672,�k��,4.0,��
2019/11/26,18:20,0.697,1.010,0.673,1.248,0.880,0.405,0.706,0.673,�k��,4.1,��
2019/11/26,18:30,0.698,1.010,0.675,1.247,0.881,0.403,0.709,0.672,�k��,3.8,��
2019/11/26,18:40,0.699,1.010,0.674,1.248,0.879,0.403,0.706,0.672,���k��,3.2,��
2019/11/26,18:50,0.700,1.009,0.671,1.247,0.879,0.403,0.708,0.672,���k��,2.7,��
2019/11/26,19:00,0.698,1.011,0.670,1.247,0.878,0.404,0.706,0.671,���k��,2.3,��
2019/11/26,19:10,0.699,1.010,0.673,1.248,0.879,0.403,0.708,0.672,���k��,2.4,��
2019/11/26,19:20,0.698,1.008,0.672,1.249,0.879,0.405,0.707,0.670,�k��,1.8,��
2019/11/26,19:30,0.700,1.010,0.672,1.247,0.879,0.404,0.706,0.672,���k��,2.0,��
2019/11/26,19:40,0.699,1.009,0.673,1.247,0.881,0.403,0.706,0.671,���k��,2.5,��
2019/11/26,19:50,0.700,1.010,0.673,1.247,0.882,0.405,0.707,0.673,���k��,2.1,��
2019/11/26,20:00,0.697,1.011,0.675,1.247,0.878,0.403,0.707,0.672,�k�k��,0.7,��
2019/11/26,20:10,0.699,1.010,0.674,1.250,0.880,0.402,0.707,0.671,�k��,2.3,��
2019/11/26,20:20,0.699,1.009,0.676,1.247,0.881,0.401,0.706,0.673,���k��,2.2,��
2019/11/26,20:30,0.700,1.012,0.673,1.247,0.881,0.404,0.706,0.672,���k��,2.2,��
2019/11/26,20:40,0.700,1.009,0.673,1.247,0.879,0.402,0.707,0.670,�k��,1.9,��
2019/11/26,20:50,0.701,1.009,0.675,1.249,0.879,0.403,0.707,0.671,�k��,1.5,��
2019/11/26,21:00,0.698,1.009,0.673,1.249,0.882,0.405,0.705,0.671,���k��,1.9,��
2019/11/26,21:10,0.698,1.010,0.674,1.248,0.880,0.405,0.705,0.672,���k��,1.7,��
2019/11/26,21:20,0.700,1.008,0.672,1.247,0.879,0.404,0.706,0.672,��,2.2,��
2019/11/26,21:30,0.699,1.008,0.673,1.248,0.881,0.404,0.706,0.673,��,1.6,��
2019/11/26,21:40,0.701,1.009,0.674,1.249,0.879,0.403,0.705,0.672,��,2.2,��
2019/11/26,21:50,0.698,1.010,0.676,1.246,0.881,0.403,0.705,0.670,��,2.6,��
2019/11/26,22:00,0.701,1.009,0.675,1.248,0.881,0.405,0.706,0.672,��,2.2,��
2019/11/26,22:10,0.699,1.011,0.674,1.250,0.879,0.405,0.706,0.671,��,0.9,��
2019/11/26,22:20,0.700,1.009,0.674,1.246,0.879,0.405,0.705,0.671,���쐼,2.0,��
2019/11/26,22:30,0.700,1.010,0.674,1.250,0.879,0.403,0.705,0.673,�쐼,3.2,��
2019/11/26,22:40,0.701,1.009,0.674,1.247,0.880,0.406,0.705,0.672,�쐼,3.4,��
2019/11/26,22:50,0.699,1.009,0.674,1.249,0.879,0.406,0.707,0.672,���쐼,3.3,��
2019/11/26,23:00,0.700,1.008,0.674,1.247,0.880,0.405,0.706,0.672,�쐼,3.8,��
2019/11/26,23:10,0.699,1.008,0.674,1.249,0.879,0.405,0.707,0.671,�쐼,4.1,��
2019/11/26,23:20,0.699,1.011,0.673,1.247,0.880,0.406,0.707,0.672,�쐼,4.5,��
2019/11/26,23:30,0.701,1.009,0.673,1.246,0.881,0.403,0.706,0.672,�쐼,3.3,��
2019/11/26,23:40,0.699,1.010,0.674,1.248,0.881,0.404,0.705,0.672,�쐼,2.5,��
2019/11/26,23:50,0.701,1.008,0.674,1.247,0.879,0.405,0.706,0.671,�쐼,1.7,��
